Time,TemperatureF,DewpointF,PressureIn,WindDirection,WindDirectionDegrees,WindSpeedMPH,WindSpeedGustMPH,Humidity,HourlyPrecipIn,Conditions,Clouds,dailyrainin,SoftwareType,DateUTC
2013-02-14 00:00:00,28.8,28.1,29.98,WSW,238,0.0,0.0,97,0.00,,,0.05,Wunderground v.1.15,2013-02-14 05:00:00,
2013-02-14 00:02:00,28.9,28.2,29.98,WSW,244,0.0,1.0,97,0.00,,,0.00,Wunderground v.1.15,2013-02-14 05:02:00,
2013-02-14 00:05:00,28.9,28.2,29.98,WSW,249,1.0,2.0,97,0.00,,,0.00,Wunderground v.1.15,2013-02-14 05:05:00,
2013-02-14 00:08:00,28.8,27.8,29.98,WSW,255,1.0,2.0,96,0.00,,,0.00,Wunderground v.1.15,2013-02-14 05:08:00,
2013-02-14 00:13:00,28.8,28.1,29.99,WSW,240,0.0,1.0,97,0.00,,,0.00,Wunderground v.1.15,2013-02-14 05:13:00,
2013-02-14 00:19:00,28.7,27.7,29.99,SW,233,0.0,1.0,96,0.00,,,0.00,Wunderground v.1.15,2013-02-14 05:19:00,
2013-02-14 00:24:00,28.5,27.5,29.99,SW,233,0.0,0.0,96,0.00,,,0.00,Wunderground v.1.15,2013-02-14 05:24:00,
2013-02-14 00:30:00,28.4,27.7,29.99,SW,233,0.0,0.0,97,0.00,,,0.00,Wunderground v.1.15,2013-02-14 05:30:00,
2013-02-14 00:35:00,28.3,27.6,29.99,SW,228,0.0,0.0,97,0.00,,,0.00,Wunderground v.1.15,2013-02-14 05:35:00,
2013-02-14 00:41:00,28.2,27.5,29.99,WSW,238,0.0,0.0,97,0.00,,,0.00,Wunderground v.1.15,2013-02-14 05:41:00,
2013-02-14 00:47:00,28.1,27.4,29.99,WSW,245,0.0,0.0,97,0.00,,,0.00,Wunderground v.1.15,2013-02-14 05:47:00,
2013-02-14 00:53:00,28.0,27.3,29.99,WSW,245,0.0,0.0,97,0.00,,,0.00,Wunderground v.1.15,2013-02-14 05:53:00,
2013-02-14 00:59:00,28.0,27.3,29.99,WSW,246,0.0,0.0,97,0.00,,,0.00,Wunderground v.1.15,2013-02-14 05:59:00,
2013-02-14 01:04:00,27.9,27.2,29.99,SSW,209,0.0,1.0,97,0.00,,,0.00,Wunderground v.1.15,2013-02-14 06:04:00,
2013-02-14 01:10:00,27.7,27.0,29.99,WSW,237,0.0,0.0,97,0.00,,,0.00,Wunderground v.1.15,2013-02-14 06:10:00,
2013-02-14 01:16:00,27.8,27.1,30.00,WSW,238,0.0,1.0,97,0.00,,,0.00,Wunderground v.1.15,2013-02-14 06:16:00,
2013-02-14 01:21:00,27.8,27.1,30.00,SW,217,0.0,0.0,97,0.00,,,0.00,Wunderground v.1.15,2013-02-14 06:21:00,
2013-02-14 01:26:00,27.9,27.2,30.00,WSW,240,0.0,0.0,97,0.00,,,0.00,Wunderground v.1.15,2013-02-14 06:26:00,
2013-02-14 01:32:00,28.2,27.5,30.00,SSW,205,1.0,2.0,97,0.00,,,0.00,Wunderground v.1.15,2013-02-14 06:32:00,
2013-02-14 01:38:00,28.6,28.1,30.00,SW,229,1.0,2.0,98,0.00,,,0.00,Wunderground v.1.15,2013-02-14 06:38:00,
2013-02-14 01:44:00,28.6,27.9,30.00,SSW,193,1.0,2.0,97,0.00,,,0.00,Wunderground v.1.15,2013-02-14 06:44:00,
2013-02-14 01:49:00,28.6,27.9,30.00,South,184,2.0,2.0,97,0.00,,,0.00,Wunderground v.1.15,2013-02-14 06:49:00,
2013-02-14 01:56:00,28.5,27.8,30.00,SW,233,2.0,4.0,97,0.00,,,0.00,Wunderground v.1.15,2013-02-14 06:56:00,
2013-02-14 02:01:00,28.6,27.9,30.00,SW,222,2.0,3.0,97,0.00,,,0.00,Wunderground v.1.15,2013-02-14 07:01:00,
2013-02-14 02:07:00,28.6,27.9,30.00,SW,214,2.0,4.0,97,0.00,,,0.00,Wunderground v.1.15,2013-02-14 07:07:00,
2013-02-14 02:12:00,28.6,27.9,30.00,SSW,197,3.0,3.0,97,0.00,,,0.00,Wunderground v.1.15,2013-02-14 07:12:00,
2013-02-14 02:18:00,28.5,27.8,30.00,SW,225,3.0,3.0,97,0.00,,,0.00,Wunderground v.1.15,2013-02-14 07:18:00,
2013-02-14 02:24:00,28.5,27.8,30.00,SSW,200,2.0,3.0,97,0.00,,,0.00,Wunderground v.1.15,2013-02-14 07:24:00,
2013-02-14 02:30:00,28.5,27.8,30.00,SW,214,1.0,3.0,97,0.00,,,0.00,Wunderground v.1.15,2013-02-14 07:30:00,
2013-02-14 02:36:00,28.5,27.8,30.00,SW,216,2.0,3.0,97,0.00,,,0.00,Wunderground v.1.15,2013-02-14 07:36:00,
2013-02-14 02:41:00,28.5,27.8,30.00,SW,224,2.0,2.0,97,0.00,,,0.00,Wunderground v.1.15,2013-02-14 07:41:00,
2013-02-14 02:47:00,28.5,27.8,30.00,SW,229,1.0,3.0,97,0.00,,,0.00,Wunderground v.1.15,2013-02-14 07:47:00,
2013-02-14 02:53:00,28.3,27.6,30.00,SSW,211,1.0,1.0,97,0.00,,,0.00,Wunderground v.1.15,2013-02-14 07:53:00,
2013-02-14 02:59:00,28.3,27.6,30.00,SSW,212,1.0,2.0,97,0.00,,,0.00,Wunderground v.1.15,2013-02-14 07:59:00,
2013-02-14 03:05:00,28.3,27.6,29.99,SW,233,1.0,1.0,97,0.00,,,0.00,Wunderground v.1.15,2013-02-14 08:05:00,
2013-02-14 03:10:00,28.1,27.4,29.99,WSW,242,0.0,0.0,97,0.00,,,0.00,Wunderground v.1.15,2013-02-14 08:10:00,
2013-02-14 03:16:00,27.8,27.1,29.99,WSW,246,0.0,0.0,97,0.00,,,0.00,Wunderground v.1.15,2013-02-14 08:16:00,
2013-02-14 03:22:00,27.7,27.0,30.00,SSW,201,0.0,0.0,97,0.00,,,0.00,Wunderground v.1.15,2013-02-14 08:22:00,
2013-02-14 03:28:00,27.8,27.1,29.99,South,183,0.0,2.0,97,0.00,,,0.00,Wunderground v.1.15,2013-02-14 08:28:00,
2013-02-14 03:33:00,28.2,27.7,29.99,SSW,203,1.0,2.0,98,0.00,,,0.00,Wunderground v.1.15,2013-02-14 08:33:00,
2013-02-14 03:39:00,28.6,28.1,29.99,South,176,2.0,2.0,98,0.00,,,0.00,Wunderground v.1.15,2013-02-14 08:39:00,
2013-02-14 03:45:00,29.0,28.5,29.99,SW,219,3.0,4.0,98,0.00,,,0.00,Wunderground v.1.15,2013-02-14 08:45:00,
2013-02-14 03:51:00,29.1,28.6,29.99,SSE,158,2.0,4.0,98,0.00,,,0.00,Wunderground v.1.15,2013-02-14 08:51:00,
2013-02-14 03:56:00,29.2,28.7,29.99,South,177,2.0,4.0,98,0.00,,,0.00,Wunderground v.1.15,2013-02-14 08:56:00,
2013-02-14 04:02:00,29.4,28.9,29.99,South,184,3.0,3.0,98,0.00,,,0.00,Wunderground v.1.15,2013-02-14 09:02:00,
2013-02-14 04:08:00,29.6,29.1,29.99,SSW,197,3.0,4.0,98,0.00,,,0.00,Wunderground v.1.15,2013-02-14 09:08:00,
2013-02-14 04:14:00,29.7,29.2,29.99,SSE,167,3.0,6.0,98,0.00,,,0.00,Wunderground v.1.15,2013-02-14 09:14:00,
2013-02-14 04:19:00,29.7,29.2,30.00,SW,217,3.0,6.0,98,0.00,,,0.00,Wunderground v.1.15,2013-02-14 09:19:00,
2013-02-14 04:25:00,29.7,29.0,30.00,South,186,3.0,3.0,97,0.00,,,0.00,Wunderground v.1.15,2013-02-14 09:25:00,
2013-02-14 04:31:00,29.6,28.9,30.00,SSW,193,3.0,4.0,97,0.00,,,0.00,Wunderground v.1.15,2013-02-14 09:31:00,
2013-02-14 04:37:00,29.5,28.8,30.00,SSW,198,3.0,4.0,97,0.00,,,0.00,Wunderground v.1.15,2013-02-14 09:37:00,
2013-02-14 04:42:00,29.4,28.7,30.00,South,191,3.0,3.0,97,0.00,,,0.00,Wunderground v.1.15,2013-02-14 09:42:00,
2013-02-14 04:47:00,29.2,28.5,30.00,SSW,208,2.0,3.0,97,0.00,,,0.00,Wunderground v.1.15,2013-02-14 09:47:00,
2013-02-14 04:52:00,29.1,28.4,30.00,SSW,200,2.0,3.0,97,0.00,,,0.00,Wunderground v.1.15,2013-02-14 09:52:00,
2013-02-14 04:58:00,29.1,28.4,30.00,WSW,248,3.0,4.0,97,0.00,,,0.00,Wunderground v.1.15,2013-02-14 09:58:00,
2013-02-14 05:04:00,29.3,28.6,30.00,SSE,148,3.0,5.0,97,0.00,,,0.00,Wunderground v.1.15,2013-02-14 10:04:00,
2013-02-14 05:09:00,29.3,28.6,30.00,SSW,207,4.0,5.0,97,0.00,,,0.00,Wunderground v.1.15,2013-02-14 10:09:00,
2013-02-14 05:15:00,29.4,28.7,30.00,SSE,159,4.0,5.0,97,0.00,,,0.00,Wunderground v.1.15,2013-02-14 10:15:00,
2013-02-14 05:21:00,29.4,28.7,30.00,South,174,4.0,4.0,97,0.00,,,0.00,Wunderground v.1.15,2013-02-14 10:21:00,
2013-02-14 05:27:00,29.5,28.8,30.00,South,186,4.0,6.0,97,0.00,,,0.00,Wunderground v.1.15,2013-02-14 10:27:00,
2013-02-14 05:32:00,29.4,28.7,30.00,SW,218,3.0,4.0,97,0.00,,,0.00,Wunderground v.1.15,2013-02-14 10:32:00,
2013-02-14 05:38:00,29.2,28.5,29.99,SSE,162,2.0,4.0,97,0.00,,,0.00,Wunderground v.1.15,2013-02-14 10:38:00,
2013-02-14 05:43:00,29.1,28.4,30.00,SSW,205,2.0,4.0,97,0.00,,,0.00,Wunderground v.1.15,2013-02-14 10:43:00,
2013-02-14 05:49:00,29.1,28.4,29.99,SW,219,3.0,4.0,97,0.00,,,0.00,Wunderground v.1.15,2013-02-14 10:49:00,
2013-02-14 05:55:00,29.2,28.5,30.00,SW,221,3.0,5.0,97,0.00,,,0.00,Wunderground v.1.15,2013-02-14 10:55:00,
2013-02-14 06:00:00,29.4,28.7,30.00,SSW,210,3.0,3.0,97,0.00,,,0.00,Wunderground v.1.15,2013-02-14 11:00:00,
2013-02-14 06:06:00,29.6,28.9,30.00,SSW,195,3.0,4.0,97,0.00,,,0.00,Wunderground v.1.15,2013-02-14 11:06:00,
2013-02-14 06:12:00,29.8,29.1,29.99,SSW,205,3.0,5.0,97,0.00,,,0.00,Wunderground v.1.15,2013-02-14 11:12:00,
2013-02-14 06:18:00,30.1,29.4,30.00,SSW,210,3.0,5.0,97,0.00,,,0.00,Wunderground v.1.15,2013-02-14 11:18:00,
2013-02-14 06:24:00,30.2,29.5,30.00,SSE,161,2.0,3.0,97,0.00,,,0.00,Wunderground v.1.15,2013-02-14 11:24:00,
2013-02-14 06:30:00,30.5,29.8,30.00,South,191,2.0,5.0,97,0.00,,,0.00,Wunderground v.1.15,2013-02-14 11:30:00,
2013-02-14 06:35:00,30.7,30.0,30.00,SSW,192,3.0,5.0,97,0.00,,,0.00,Wunderground v.1.15,2013-02-14 11:35:00,
2013-02-14 06:41:00,30.8,29.8,30.00,SW,226,3.0,3.0,96,0.00,,,0.00,Wunderground v.1.15,2013-02-14 11:41:00,
2013-02-14 06:46:00,30.9,29.9,30.00,SSW,208,3.0,4.0,96,0.00,,,0.00,Wunderground v.1.15,2013-02-14 11:46:00,
2013-02-14 06:52:00,31.1,30.1,30.00,South,181,3.0,6.0,96,0.00,,,0.00,Wunderground v.1.15,2013-02-14 11:52:00,
2013-02-14 06:57:00,31.2,30.2,30.00,SW,217,3.0,6.0,96,0.00,,,0.00,Wunderground v.1.15,2013-02-14 11:57:00,
2013-02-14 07:02:00,31.2,30.2,30.00,SSW,200,3.0,5.0,96,0.00,,,0.00,Wunderground v.1.15,2013-02-14 12:02:00,
2013-02-14 07:08:00,31.2,29.9,30.00,SSE,160,4.0,5.0,95,0.00,,,0.00,Wunderground v.1.15,2013-02-14 12:08:00,
2013-02-14 07:14:00,31.1,29.8,30.00,SSW,192,4.0,5.0,95,0.00,,,0.00,Wunderground v.1.15,2013-02-14 12:14:00,
2013-02-14 07:20:00,30.9,29.6,30.00,SSE,153,4.0,4.0,95,0.00,,,0.00,Wunderground v.1.15,2013-02-14 12:20:00,
2013-02-14 07:26:00,30.8,29.5,29.99,SSW,200,4.0,4.0,95,0.00,,,0.00,Wunderground v.1.15,2013-02-14 12:26:00,
2013-02-14 07:31:00,30.6,29.3,29.99,SSE,149,3.0,3.0,95,0.00,,,0.00,Wunderground v.1.15,2013-02-14 12:31:00,
2013-02-14 07:37:00,30.5,29.2,30.00,South,186,3.0,5.0,95,0.00,,,0.00,Wunderground v.1.15,2013-02-14 12:37:00,
2013-02-14 07:43:00,30.6,29.3,29.99,South,180,3.0,4.0,95,0.00,,,0.00,Wunderground v.1.15,2013-02-14 12:43:00,
2013-02-14 07:48:00,30.9,29.9,29.99,SSW,209,3.0,5.0,96,0.00,,,0.00,Wunderground v.1.15,2013-02-14 12:48:00,
2013-02-14 07:54:00,31.3,30.0,29.99,SSW,203,3.0,5.0,95,0.00,,,0.00,Wunderground v.1.15,2013-02-14 12:54:00,
2013-02-14 07:59:00,31.6,30.3,29.99,South,188,3.0,5.0,95,0.00,,,0.00,Wunderground v.1.15,2013-02-14 12:59:00,
2013-02-14 08:04:00,31.8,30.5,29.99,SSE,158,3.0,4.0,95,0.00,,,0.00,Wunderground v.1.15,2013-02-14 13:04:00,
2013-02-14 08:10:00,32.0,30.5,30.00,SW,214,3.0,4.0,94,0.00,,,0.00,Wunderground v.1.15,2013-02-14 13:10:00,
2013-02-14 08:15:00,32.2,30.7,30.00,SSE,158,3.0,4.0,94,0.00,,,0.00,Wunderground v.1.15,2013-02-14 13:15:00,
2013-02-14 08:21:00,32.5,31.0,30.00,SE,124,3.0,3.0,94,0.00,,,0.00,Wunderground v.1.15,2013-02-14 13:21:00,
2013-02-14 08:27:00,32.8,31.3,30.00,SE,131,3.0,6.0,94,0.00,,,0.00,Wunderground v.1.15,2013-02-14 13:27:00,
2013-02-14 08:33:00,33.2,31.7,30.00,South,181,4.0,6.0,94,0.00,,,0.00,Wunderground v.1.15,2013-02-14 13:33:00,
2013-02-14 08:39:00,33.6,31.8,30.00,SSW,194,3.0,6.0,93,0.00,,,0.00,Wunderground v.1.15,2013-02-14 13:39:00,
2013-02-14 08:45:00,34.1,32.3,30.01,South,183,3.0,7.0,93,0.00,,,0.00,Wunderground v.1.15,2013-02-14 13:45:00,
2013-02-14 08:50:00,34.4,32.3,30.01,South,191,4.0,4.0,92,0.00,,,0.00,Wunderground v.1.15,2013-02-14 13:50:00,
2013-02-14 08:56:00,34.7,32.6,30.01,South,186,4.0,5.0,92,0.00,,,0.00,Wunderground v.1.15,2013-02-14 13:56:00,
2013-02-14 09:02:00,35.1,33.0,30.01,South,183,4.0,5.0,92,0.00,,,0.00,Wunderground v.1.15,2013-02-14 14:02:00,
2013-02-14 09:07:00,35.3,33.2,30.01,SW,233,4.0,6.0,92,0.00,,,0.00,Wunderground v.1.15,2013-02-14 14:07:00,
2013-02-14 09:13:00,35.1,33.0,30.01,South,186,4.0,5.0,92,0.00,,,0.00,Wunderground v.1.15,2013-02-14 14:13:00,
2013-02-14 09:19:00,35.5,33.7,30.01,ESE,121,4.0,5.0,93,0.00,,,0.00,Wunderground v.1.15,2013-02-14 14:19:00,
2013-02-14 09:25:00,36.2,34.1,30.01,South,169,3.0,5.0,92,0.00,,,0.00,Wunderground v.1.15,2013-02-14 14:25:00,
2013-02-14 09:30:00,36.1,33.7,30.01,South,184,4.0,4.0,91,0.00,,,0.00,Wunderground v.1.15,2013-02-14 14:30:00,
2013-02-14 09:36:00,36.2,33.8,30.01,SE,139,5.0,5.0,91,0.00,,,0.00,Wunderground v.1.15,2013-02-14 14:36:00,
2013-02-14 09:42:00,36.4,34.0,30.01,SSW,201,5.0,8.0,91,0.00,,,0.00,Wunderground v.1.15,2013-02-14 14:42:00,
2013-02-14 09:48:00,36.8,34.4,30.01,SSW,194,5.0,8.0,91,0.00,,,0.00,Wunderground v.1.15,2013-02-14 14:48:00,
2013-02-14 09:54:00,36.6,34.2,30.01,SW,214,4.0,6.0,91,0.00,,,0.00,Wunderground v.1.15,2013-02-14 14:54:00,
2013-02-14 09:59:00,36.7,34.0,30.01,South,181,5.0,7.0,90,0.00,,,0.00,Wunderground v.1.15,2013-02-14 14:59:00,
2013-02-14 10:05:00,36.9,34.5,30.01,South,191,6.0,9.0,91,0.00,,,0.00,Wunderground v.1.15,2013-02-14 15:05:00,
2013-02-14 10:11:00,37.2,34.5,30.02,SSW,200,5.0,8.0,90,0.00,,,0.00,Wunderground v.1.15,2013-02-14 15:11:00,
2013-02-14 10:17:00,37.3,34.9,30.02,SSW,194,5.0,8.0,91,0.00,,,0.00,Wunderground v.1.15,2013-02-14 15:17:00,
2013-02-14 10:23:00,37.6,35.2,30.02,SSE,163,5.0,6.0,91,0.00,,,0.00,Wunderground v.1.15,2013-02-14 15:23:00,
2013-02-14 10:28:00,38.0,35.6,30.02,South,180,5.0,8.0,91,0.00,,,0.00,Wunderground v.1.15,2013-02-14 15:28:00,
2013-02-14 10:33:00,38.3,35.6,30.02,SW,233,5.0,7.0,90,0.00,,,0.00,Wunderground v.1.15,2013-02-14 15:33:00,
2013-02-14 10:39:00,38.7,36.0,30.02,South,184,5.0,10.0,90,0.00,,,0.00,Wunderground v.1.15,2013-02-14 15:39:00,
2013-02-14 10:45:00,39.0,36.0,30.02,SSW,194,5.0,11.0,89,0.00,,,0.01,Wunderground v.1.15,2013-02-14 15:45:00,
2013-02-14 10:51:00,39.2,36.2,30.01,South,190,6.0,6.0,89,0.00,,,0.01,Wunderground v.1.15,2013-02-14 15:51:00,
2013-02-14 10:57:00,39.4,36.1,30.01,South,184,5.0,9.0,88,0.00,,,0.01,Wunderground v.1.15,2013-02-14 15:57:00,
2013-02-14 11:02:00,39.6,36.6,30.01,SW,214,5.0,8.0,89,0.00,,,0.01,Wunderground v.1.15,2013-02-14 16:02:00,
2013-02-14 11:08:00,40.3,37.0,30.01,SW,226,5.0,8.0,88,0.00,,,0.01,Wunderground v.1.15,2013-02-14 16:08:00,
2013-02-14 11:14:00,40.6,37.0,30.00,SSW,194,6.0,8.0,87,0.00,,,0.01,Wunderground v.1.15,2013-02-14 16:14:00,
2013-02-14 11:20:00,40.9,37.0,30.00,South,188,6.0,8.0,86,0.00,,,0.01,Wunderground v.1.15,2013-02-14 16:20:00,
2013-02-14 11:26:00,41.5,37.6,30.00,SSW,203,7.0,10.0,86,0.00,,,0.01,Wunderground v.1.15,2013-02-14 16:26:00,
2013-02-14 11:31:00,42.1,38.2,30.01,ESE,118,6.0,7.0,86,0.00,,,0.01,Wunderground v.1.15,2013-02-14 16:31:00,
2013-02-14 11:37:00,42.4,38.2,30.00,SW,231,6.0,8.0,85,0.00,,,0.01,Wunderground v.1.15,2013-02-14 16:37:00,
2013-02-14 11:42:00,43.0,37.9,30.00,SW,214,6.0,6.0,82,0.00,,,0.01,Wunderground v.1.15,2013-02-14 16:42:00,
2013-02-14 11:48:00,43.1,38.0,30.00,SW,221,6.0,10.0,82,0.00,,,0.01,Wunderground v.1.15,2013-02-14 16:48:00,
2013-02-14 11:54:00,43.6,38.5,30.00,SW,220,6.0,9.0,82,0.00,,,0.01,Wunderground v.1.15,2013-02-14 16:54:00,
2013-02-14 12:00:00,44.5,38.7,29.99,South,188,6.0,6.0,80,0.00,,,0.01,Wunderground v.1.15,2013-02-14 17:00:00,
2013-02-14 12:06:00,45.1,38.3,29.99,SW,214,7.0,13.0,77,0.00,,,0.01,Wunderground v.1.15,2013-02-14 17:06:00,
2013-02-14 12:12:00,45.4,38.3,29.99,SW,217,7.0,11.0,76,0.00,,,0.01,Wunderground v.1.15,2013-02-14 17:12:00,
2013-02-14 12:18:00,45.5,38.4,29.98,West,267,7.0,11.0,76,0.00,,,0.01,Wunderground v.1.15,2013-02-14 17:18:00,
2013-02-14 12:24:00,46.1,39.3,29.98,WSW,239,6.0,11.0,77,0.00,,,0.01,Wunderground v.1.15,2013-02-14 17:24:00,
2013-02-14 12:30:00,46.5,38.7,29.98,West,259,6.0,11.0,74,0.00,,,0.01,Wunderground v.1.15,2013-02-14 17:30:00,
2013-02-14 12:35:00,46.7,38.5,29.98,SW,214,7.0,11.0,73,0.00,,,0.01,Wunderground v.1.15,2013-02-14 17:35:00,
2013-02-14 12:41:00,46.8,38.9,29.97,SSE,158,7.0,7.0,74,0.00,,,0.01,Wunderground v.1.15,2013-02-14 17:41:00,
2013-02-14 12:47:00,47.5,39.3,29.97,WSW,248,6.0,15.0,73,0.00,,,0.01,Wunderground v.1.15,2013-02-14 17:47:00,
2013-02-14 12:53:00,48.0,39.4,29.97,SW,235,6.0,10.0,72,0.00,,,0.01,Wunderground v.1.15,2013-02-14 17:53:00,
2013-02-14 13:00:00,48.5,39.2,29.96,SSE,167,6.0,6.0,70,0.00,,,0.01,Wunderground v.1.15,2013-02-14 18:00:00,
2013-02-14 13:06:00,48.8,38.3,29.96,SW,233,6.0,11.0,67,0.00,,,0.01,Wunderground v.1.15,2013-02-14 18:06:00,
2013-02-14 13:11:00,48.9,38.4,29.96,SSE,165,7.0,8.0,67,0.00,,,0.01,Wunderground v.1.15,2013-02-14 18:11:00,
2013-02-14 13:17:00,49.1,38.2,29.96,SSW,194,8.0,12.0,66,0.00,,,0.01,Wunderground v.1.15,2013-02-14 18:17:00,
2013-02-14 13:23:00,49.5,39.0,29.95,SW,225,7.0,8.0,67,0.00,,,0.01,Wunderground v.1.15,2013-02-14 18:23:00,
2013-02-14 13:28:00,49.8,38.5,29.95,WSW,243,8.0,12.0,65,0.00,,,0.01,Wunderground v.1.15,2013-02-14 18:28:00,
2013-02-14 13:34:00,50.1,38.0,29.95,SW,214,8.0,11.0,63,0.00,,,0.01,Wunderground v.1.15,2013-02-14 18:34:00,
2013-02-14 13:40:00,50.4,38.3,29.95,South,176,8.0,8.0,63,0.00,,,0.01,Wunderground v.1.15,2013-02-14 18:40:00,
2013-02-14 13:46:00,50.5,38.0,29.95,SW,226,8.0,11.0,62,0.00,,,0.01,Wunderground v.1.15,2013-02-14 18:46:00,
2013-02-14 13:52:00,50.7,38.1,29.94,WSW,239,7.0,8.0,62,0.00,,,0.01,Wunderground v.1.15,2013-02-14 18:52:00,
2013-02-14 13:58:00,50.9,37.9,29.94,SW,235,8.0,14.0,61,0.00,,,0.01,Wunderground v.1.15,2013-02-14 18:58:00,
2013-02-14 14:03:00,51.2,37.4,29.94,SSW,207,9.0,9.0,59,0.00,,,0.01,Wunderground v.1.15,2013-02-14 19:03:00,
2013-02-14 14:09:00,51.5,38.1,29.94,SSW,206,8.0,13.0,60,0.00,,,0.01,Wunderground v.1.15,2013-02-14 19:09:00,
2013-02-14 14:15:00,51.4,38.0,29.94,SSE,156,8.0,17.0,60,0.00,,,0.01,Wunderground v.1.15,2013-02-14 19:15:00,
2013-02-14 14:20:00,51.7,37.8,29.94,WSW,250,8.0,10.0,59,0.00,,,0.01,Wunderground v.1.15,2013-02-14 19:20:00,
2013-02-14 14:26:00,52.1,38.2,29.94,WSW,240,8.0,12.0,59,0.00,,,0.01,Wunderground v.1.15,2013-02-14 19:26:00,
2013-02-14 14:32:00,52.4,38.5,29.93,SSW,197,7.0,10.0,59,0.00,,,0.01,Wunderground v.1.15,2013-02-14 19:32:00,
2013-02-14 14:38:00,52.6,37.8,29.93,SSE,166,6.0,10.0,57,0.00,,,0.01,Wunderground v.1.15,2013-02-14 19:38:00,
2013-02-14 14:43:00,52.7,37.9,29.93,West,271,6.0,7.0,57,0.00,,,0.01,Wunderground v.1.15,2013-02-14 19:43:00,
2013-02-14 14:49:00,53.2,38.4,29.93,WSW,245,7.0,11.0,57,0.00,,,0.01,Wunderground v.1.15,2013-02-14 19:49:00,
2013-02-14 14:55:00,53.3,38.0,29.93,West,259,7.0,12.0,56,0.00,,,0.01,Wunderground v.1.15,2013-02-14 19:55:00,
2013-02-14 15:00:00,53.7,38.4,29.93,SSW,197,6.0,6.0,56,0.00,,,0.01,Wunderground v.1.15,2013-02-14 20:00:00,
2013-02-14 15:06:00,53.6,37.8,29.93,WSW,239,7.0,13.0,55,0.00,,,0.01,Wunderground v.1.15,2013-02-14 20:06:00,
2013-02-14 15:12:00,53.7,37.9,29.93,WSW,250,7.0,9.0,55,0.00,,,0.01,Wunderground v.1.15,2013-02-14 20:12:00,
2013-02-14 15:18:00,53.6,36.9,29.93,WSW,257,8.0,10.0,53,0.00,,,0.01,Wunderground v.1.15,2013-02-14 20:18:00,
2013-02-14 15:24:00,53.7,37.0,29.93,SW,217,8.0,9.0,53,0.00,,,0.01,Wunderground v.1.15,2013-02-14 20:24:00,
2013-02-14 15:30:00,54.1,36.9,29.92,West,260,6.0,9.0,52,0.00,,,0.01,Wunderground v.1.15,2013-02-14 20:30:00,
2013-02-14 15:36:00,53.4,36.2,29.93,WSW,243,6.0,10.0,52,0.00,,,0.01,Wunderground v.1.15,2013-02-14 20:36:00,
2013-02-14 15:41:00,53.6,36.4,29.92,SW,231,7.0,9.0,52,0.00,,,0.01,Wunderground v.1.15,2013-02-14 20:41:00,
2013-02-14 15:47:00,54.0,36.8,29.93,SW,236,7.0,10.0,52,0.00,,,0.01,Wunderground v.1.15,2013-02-14 20:47:00,
2013-02-14 15:53:00,53.9,36.7,29.93,SSW,208,7.0,9.0,52,0.00,,,0.01,Wunderground v.1.15,2013-02-14 20:53:00,
2013-02-14 15:59:00,54.2,37.4,29.92,WSW,250,7.0,13.0,53,0.00,,,0.01,Wunderground v.1.15,2013-02-14 20:59:00,
2013-02-14 16:05:00,54.3,36.0,29.93,WSW,246,8.0,14.0,50,0.00,,,0.01,Wunderground v.1.15,2013-02-14 21:05:00,
2013-02-14 16:11:00,54.5,35.7,29.93,SW,221,8.0,8.0,49,0.00,,,0.01,Wunderground v.1.15,2013-02-14 21:11:00,
2013-02-14 16:16:00,54.4,35.6,29.93,South,180,7.0,8.0,49,0.00,,,0.01,Wunderground v.1.15,2013-02-14 21:16:00,
2013-02-14 16:22:00,54.6,36.3,29.93,West,259,6.0,6.0,50,0.00,,,0.01,Wunderground v.1.15,2013-02-14 21:22:00,
2013-02-14 16:28:00,54.4,36.1,29.93,West,278,6.0,9.0,50,0.00,,,0.01,Wunderground v.1.15,2013-02-14 21:28:00,
2013-02-14 16:33:00,54.4,36.1,29.93,West,259,6.0,7.0,50,0.00,,,0.01,Wunderground v.1.15,2013-02-14 21:33:00,
2013-02-14 16:39:00,54.4,36.1,29.93,WSW,245,5.0,7.0,50,0.00,,,0.01,Wunderground v.1.15,2013-02-14 21:39:00,
2013-02-14 16:45:00,54.1,34.3,29.93,WSW,239,5.0,10.0,47,0.00,,,0.01,Wunderground v.1.15,2013-02-14 21:45:00,
2013-02-14 16:51:00,54.2,35.4,29.93,WSW,246,5.0,6.0,49,0.00,,,0.01,Wunderground v.1.15,2013-02-14 21:51:00,
2013-02-14 16:57:00,54.3,35.0,29.93,WSW,248,4.0,8.0,48,0.00,,,0.01,Wunderground v.1.15,2013-02-14 21:57:00,
2013-02-14 17:02:00,54.3,35.0,29.94,SE,145,6.0,8.0,48,0.00,,,0.01,Wunderground v.1.15,2013-02-14 22:02:00,
2013-02-14 17:08:00,54.3,33.9,29.94,WSW,242,7.0,9.0,46,0.00,,,0.01,Wunderground v.1.15,2013-02-14 22:08:00,
2013-02-14 17:14:00,54.1,33.8,29.94,WSW,240,7.0,10.0,46,0.00,,,0.01,Wunderground v.1.15,2013-02-14 22:14:00,
2013-02-14 17:19:00,53.9,34.6,29.94,WNW,287,7.0,11.0,48,0.00,,,0.01,Wunderground v.1.15,2013-02-14 22:19:00,
2013-02-14 17:25:00,53.9,34.1,29.94,West,274,8.0,13.0,47,0.00,,,0.01,Wunderground v.1.15,2013-02-14 22:25:00,
2013-02-14 17:30:00,53.6,34.4,29.95,WSW,245,7.0,7.0,48,0.00,,,0.01,Wunderground v.1.15,2013-02-14 22:30:00,
2013-02-14 17:35:00,53.6,34.4,29.94,WSW,253,6.0,9.0,48,0.00,,,0.01,Wunderground v.1.15,2013-02-14 22:35:00,
2013-02-14 17:41:00,53.2,34.5,29.94,WSW,250,6.0,6.0,49,0.00,,,0.01,Wunderground v.1.15,2013-02-14 22:41:00,
2013-02-14 17:47:00,52.5,33.9,29.95,WSW,248,4.0,6.0,49,0.00,,,0.01,Wunderground v.1.15,2013-02-14 22:47:00,
2013-02-14 17:53:00,52.2,34.1,29.95,WSW,239,6.0,7.0,50,0.00,,,0.01,Wunderground v.1.15,2013-02-14 22:53:00,
2013-02-14 17:58:00,51.8,34.2,29.95,WSW,248,5.0,7.0,51,0.00,,,0.01,Wunderground v.1.15,2013-02-14 22:58:00,
2013-02-14 18:04:00,51.5,34.4,29.96,WSW,250,4.0,6.0,52,0.00,,,0.01,Wunderground v.1.15,2013-02-14 23:04:00,
2013-02-14 18:09:00,51.4,34.3,29.96,SSW,210,4.0,10.0,52,0.00,,,0.01,Wunderground v.1.15,2013-02-14 23:09:00,
2013-02-14 18:15:00,51.4,34.3,29.96,West,270,5.0,6.0,52,0.00,,,0.01,Wunderground v.1.15,2013-02-14 23:15:00,
2013-02-14 18:21:00,51.1,34.5,29.96,WSW,252,4.0,4.0,53,0.00,,,0.01,Wunderground v.1.15,2013-02-14 23:21:00,
2013-02-14 18:26:00,50.6,35.0,29.97,WSW,248,3.0,4.0,55,0.00,,,0.01,Wunderground v.1.15,2013-02-14 23:26:00,
2013-02-14 18:32:00,50.1,34.5,29.97,WSW,248,2.0,2.0,55,0.00,,,0.01,Wunderground v.1.15,2013-02-14 23:32:00,
2013-02-14 18:38:00,50.0,34.5,29.97,WSW,239,3.0,7.0,55,0.00,,,0.01,Wunderground v.1.15,2013-02-14 23:38:00,
2013-02-14 18:44:00,50.2,34.6,29.97,SW,218,4.0,4.0,55,0.00,,,0.01,Wunderground v.1.15,2013-02-14 23:44:00,
2013-02-14 18:49:00,50.0,34.9,29.97,SW,233,3.0,4.0,56,0.00,,,0.01,Wunderground v.1.15,2013-02-14 23:49:00,
2013-02-14 18:55:00,49.7,35.1,29.97,SW,235,3.0,5.0,57,0.00,,,0.01,Wunderground v.1.15,2013-02-14 23:55:00,
2013-02-14 19:08:00,49.4,34.8,29.98,SW,235,3.0,5.0,57,0.00,,,0.01,Wunderground v.1.15,2013-02-15 00:08:00,
2013-02-14 19:13:00,49.4,35.2,29.98,WSW,256,3.0,5.0,58,0.00,,,0.01,Wunderground v.1.15,2013-02-15 00:13:00,
2013-02-14 19:19:00,49.3,35.1,29.98,SW,235,3.0,3.0,58,0.00,,,0.01,Wunderground v.1.15,2013-02-15 00:19:00,
2013-02-14 19:25:00,49.2,35.0,29.98,WSW,255,2.0,3.0,58,0.00,,,0.01,Wunderground v.1.15,2013-02-15 00:25:00,
2013-02-14 19:30:00,49.0,35.3,29.98,WSW,249,2.0,2.0,59,0.00,,,0.01,Wunderground v.1.15,2013-02-15 00:30:00,
2013-02-14 19:36:00,48.8,35.1,29.98,WSW,248,2.0,2.0,59,0.00,,,0.01,Wunderground v.1.15,2013-02-15 00:36:00,
2013-02-14 19:42:00,48.7,35.4,29.98,SW,231,1.0,4.0,60,0.00,,,0.01,Wunderground v.1.15,2013-02-15 00:42:00,
2013-02-14 19:48:00,48.5,35.2,29.98,SW,233,1.0,4.0,60,0.00,,,0.01,Wunderground v.1.15,2013-02-15 00:48:00,
2013-02-14 19:53:00,48.1,35.3,29.98,SW,231,1.0,2.0,61,0.00,,,0.01,Wunderground v.1.15,2013-02-15 00:53:00,
2013-02-14 19:59:00,47.9,35.1,29.99,WSW,248,1.0,3.0,61,0.00,,,0.01,Wunderground v.1.15,2013-02-15 00:59:00,
2013-02-14 20:04:00,47.7,35.3,29.99,WSW,240,1.0,2.0,62,0.00,,,0.01,Wunderground v.1.15,2013-02-15 01:04:00,
2013-02-14 20:10:00,47.6,35.2,29.99,WSW,246,1.0,1.0,62,0.00,,,0.01,Wunderground v.1.15,2013-02-15 01:10:00,
2013-02-14 20:16:00,47.3,34.9,29.98,WSW,239,1.0,2.0,62,0.00,,,0.01,Wunderground v.1.15,2013-02-15 01:16:00,
2013-02-14 20:22:00,46.9,35.0,29.99,WSW,237,1.0,2.0,63,0.00,,,0.01,Wunderground v.1.15,2013-02-15 01:22:00,
2013-02-14 20:28:00,46.5,35.0,29.99,WSW,252,1.0,3.0,64,0.00,,,0.01,Wunderground v.1.15,2013-02-15 01:28:00,
2013-02-14 20:33:00,46.1,34.6,29.99,WSW,243,0.0,1.0,64,0.00,,,0.01,Wunderground v.1.15,2013-02-15 01:33:00,
2013-02-14 20:39:00,46.1,34.6,29.99,WSW,256,0.0,1.0,64,0.00,,,0.01,Wunderground v.1.15,2013-02-15 01:39:00,
2013-02-14 20:45:00,46.1,34.6,29.99,WSW,245,1.0,1.0,64,0.00,,,0.01,Wunderground v.1.15,2013-02-15 01:45:00,
2013-02-14 20:50:00,46.0,34.5,29.99,WSW,240,1.0,2.0,64,0.00,,,0.01,Wunderground v.1.15,2013-02-15 01:50:00,
2013-02-14 20:56:00,45.8,34.3,29.99,WSW,252,1.0,2.0,64,0.00,,,0.01,Wunderground v.1.15,2013-02-15 01:56:00,
2013-02-14 21:01:00,45.9,34.4,29.99,WSW,242,1.0,1.0,64,0.00,,,0.01,Wunderground v.1.15,2013-02-15 02:01:00,
2013-02-14 21:07:00,46.0,34.5,29.99,West,276,1.0,3.0,64,0.00,,,0.01,Wunderground v.1.15,2013-02-15 02:07:00,
2013-02-14 21:13:00,46.1,34.6,29.99,West,278,2.0,2.0,64,0.00,,,0.01,Wunderground v.1.15,2013-02-15 02:13:00,
2013-02-14 21:18:00,45.9,34.4,30.00,West,259,2.0,2.0,64,0.00,,,0.01,Wunderground v.1.15,2013-02-15 02:18:00,
2013-02-14 21:24:00,45.5,34.4,30.00,West,273,1.0,2.0,65,0.00,,,0.01,Wunderground v.1.15,2013-02-15 02:24:00,
2013-02-14 21:30:00,45.2,34.5,30.00,West,272,1.0,2.0,66,0.00,,,0.01,Wunderground v.1.15,2013-02-15 02:30:00,
2013-02-14 21:36:00,45.2,34.5,30.00,West,266,2.0,2.0,66,0.00,,,0.01,Wunderground v.1.15,2013-02-15 02:36:00,
2013-02-14 21:42:00,45.1,34.8,30.00,West,277,2.0,3.0,67,0.00,,,0.01,Wunderground v.1.15,2013-02-15 02:42:00,
2013-02-14 21:48:00,45.0,34.7,30.00,West,259,2.0,3.0,67,0.00,,,0.01,Wunderground v.1.15,2013-02-15 02:48:00,
2013-02-14 21:53:00,45.1,34.8,30.00,West,263,2.0,3.0,67,0.00,,,0.01,Wunderground v.1.15,2013-02-15 02:53:00,
2013-02-14 21:59:00,45.0,35.1,30.00,West,269,3.0,3.0,68,0.00,,,0.01,Wunderground v.1.15,2013-02-15 02:59:00,
2013-02-14 22:04:00,45.0,35.1,30.01,West,276,3.0,3.0,68,0.00,,,0.01,Wunderground v.1.15,2013-02-15 03:04:00,
2013-02-14 22:10:00,44.9,35.0,30.01,West,276,3.0,3.0,68,0.00,,,0.01,Wunderground v.1.15,2013-02-15 03:10:00,
2013-02-14 22:15:00,44.7,34.8,30.01,West,269,2.0,4.0,68,0.00,,,0.01,Wunderground v.1.15,2013-02-15 03:15:00,
2013-02-14 22:21:00,44.4,34.9,30.01,West,278,2.0,3.0,69,0.00,,,0.01,Wunderground v.1.15,2013-02-15 03:21:00,
2013-02-14 22:27:00,44.0,34.5,30.01,West,262,1.0,3.0,69,0.00,,,0.01,Wunderground v.1.15,2013-02-15 03:27:00,
2013-02-14 22:33:00,43.7,34.6,30.01,West,270,1.0,3.0,70,0.00,,,0.01,Wunderground v.1.15,2013-02-15 03:33:00,
2013-02-14 22:38:00,43.5,34.7,30.01,West,278,1.0,3.0,71,0.00,,,0.01,Wunderground v.1.15,2013-02-15 03:38:00,
2013-02-14 22:44:00,43.5,34.7,30.01,West,276,1.0,3.0,71,0.00,,,0.01,Wunderground v.1.15,2013-02-15 03:44:00,
2013-02-14 22:50:00,43.3,34.5,30.01,West,274,1.0,1.0,71,0.00,,,0.01,Wunderground v.1.15,2013-02-15 03:50:00,
2013-02-14 22:55:00,43.2,34.4,30.01,West,273,1.0,3.0,71,0.00,,,0.01,Wunderground v.1.15,2013-02-15 03:55:00,
2013-02-14 23:00:00,42.8,34.0,30.01,WNW,287,1.0,1.0,71,0.00,,,0.01,Wunderground v.1.15,2013-02-15 04:00:00,
2013-02-14 23:05:00,42.1,34.1,30.01,West,280,0.0,3.0,73,0.00,,,0.01,Wunderground v.1.15,2013-02-15 04:05:00,
2013-02-14 23:11:00,41.5,33.8,30.01,West,280,0.0,3.0,74,0.00,,,0.01,Wunderground v.1.15,2013-02-15 04:11:00,
2013-02-14 23:17:00,40.9,33.6,30.00,NNW,334,0.0,3.0,75,0.00,,,0.01,Wunderground v.1.15,2013-02-15 04:17:00,
2013-02-14 23:22:00,41.0,34.0,30.00,NW,322,0.0,3.0,76,0.00,,,0.01,Wunderground v.1.15,2013-02-15 04:22:00,
2013-02-14 23:28:00,41.1,33.8,30.00,NW,321,0.0,3.0,75,0.00,,,0.01,Wunderground v.1.15,2013-02-15 04:28:00,
2013-02-14 23:34:00,41.1,33.8,30.00,WNW,294,0.0,3.0,75,0.00,,,0.01,Wunderground v.1.15,2013-02-15 04:34:00,
2013-02-14 23:40:00,41.1,33.8,30.00,WNW,295,0.0,3.0,75,0.00,,,0.01,Wunderground v.1.15,2013-02-15 04:40:00,
2013-02-14 23:46:00,41.0,33.7,30.00,WNW,295,0.0,3.0,75,0.00,,,0.01,Wunderground v.1.15,2013-02-15 04:46:00,
2013-02-14 23:51:00,40.6,33.6,30.00,WNW,295,0.0,3.0,76,0.00,,,0.01,Wunderground v.1.15,2013-02-15 04:51:00,
2013-02-14 23:57:00,40.1,33.5,30.00,WNW,295,0.0,3.0,77,0.00,,,0.01,Wunderground v.1.15,2013-02-15 04:57:00,